Sioux Falls, SD

2:22 AM CST on December 10, 2016 (GMT -0600)
Foss

Weather History for KFSD - August, 2012

Change the Weather History Date:

Tuesday, August 28, 2012

  Actual Average Record
Temperature  
Mean Temperature 84 °F 68 °F  
Max Temperature 99 °F 80 °F 100 °F (1973)
Min Temperature 68 °F 57 °F 38 °F (1893)
Degree Days  
Heating Degree Days 0 1  
Month to date heating degree days 18 15  
Since 1 June heating degree days 39 74  
Since 1 July heating degree days 18 23  
Cooling Degree Days 19 5  
Month to date cooling degree days 214 185  
Year to date cooling degree days 1055 612  
Since 1 June cooling degree days 969 576  
Growing Degree Days 34 (Base 50)    
Moisture  
Dew Point 63 °F    
Average Humidity 57    
Maximum Humidity 84    
Minimum Humidity 29    
Precipitation  
Precipitation 0.02 in 0.09 in 2.37 in (1932)
Month to date precipitation 1.75 2.74  
Year to date precipitation 13.68 19.08  
Snow  
Snow 0.00 in 0.00 in 0.00 in ()
Month to date snowfall 0.0 0.0  
Since 1 June snowfall 0.0 0.0  
Since 1 July snowfall 0.0 0.0  
Snow Depth 0.00 in    
Sea Level Pressure  
Sea Level Pressure 29.95 in    
Wind  
Wind Speed 11 mph (SSE)    
Max Wind Speed 32 mph    
Max Gust Speed 45 mph    
Visibility 10 miles    
Events Rain , Thunderstorm    
T = Trace of Precipitation, MM = Missing Value Source: NWS Daily Summary

Daily Weather History Graph

Daily Weather History Graph

Search for Another Location

Airport or City:

Trip Planner

Search our weather history database for the weather conditions in past years. The results will help you decide how hot, cold, wet, or windy it might be!

Date:

Astronomy

Aug. 28, 2012 Rise Set
Actual Time 6:46 AM CDT 8:08 PM CDT
Civil Twilight 6:17 AM CDT 8:38 PM CDT
Nautical Twilight 5:41 AM CDT 9:13 PM CDT
Astronomical Twilight 5:03 AM CDT 9:51 PM CDT
Moon 6:14 PM CDT (8/28) 3:33 AM CDT (8/28)
Length of Visible Light 14h 21m
Length of Day
13h 21m
Waxing Gibbous, 90% of the Moon is Illuminated
Aug 28
Waxing Gibbous
Aug 31
Full
Sep 8
Last Quarter
Sep 15
New
Sep 22
First Quarter

Hourly Weather History & Observations

Time (CDT) Temp. Heat Index Dew Point Humidity Pressure Visibility Wind Dir Wind Speed Gust Speed Precip Events Conditions
12:56 AM 75.0 °F - 64.0 °F 69% 30.05 in 10.0 mi South 8.1 mph - N/A   Clear
1:56 AM 73.0 °F - 64.0 °F 73% 30.05 in 10.0 mi South 5.8 mph - N/A   Clear
2:56 AM 72.0 °F - 63.0 °F 73% 30.03 in 10.0 mi SSE 5.8 mph - N/A   Clear
3:56 AM 72.0 °F - 64.0 °F 76% 30.02 in 10.0 mi SSE 8.1 mph - N/A   Clear
4:56 AM 70.0 °F - 64.0 °F 81% 30.01 in 10.0 mi South 8.1 mph - N/A   Clear
5:56 AM 71.6 °F - 64.4 °F 78% 30.05 in 10.0 mi South 8.1 mph - N/A Rain Light Rain
6:56 AM 71.1 °F - 64.0 °F 78% 30.02 in 10.0 mi SSE 9.2 mph - 0.00 in   Partly Cloudy
7:17 AM 71.6 °F - 64.4 °F 78% 30.05 in 10.0 mi SSE 3.5 mph - N/A Thunderstorm Thunderstorm
7:56 AM 71.1 °F - 64.0 °F 78% 30.07 in 10.0 mi NE 5.8 mph - 0.00 in Rain , Thunderstorm Light Thunderstorms and Rain
8:36 AM 71.6 °F - 66.2 °F 83% 30.07 in 10.0 mi SE 11.5 mph - 0.02 in Rain , Thunderstorm Light Thunderstorms and Rain
8:44 AM 71.6 °F - 66.2 °F 83% 30.07 in 10.0 mi ESE 10.4 mph - N/A Rain Light Rain
8:56 AM 71.6 °F - 66.2 °F 83% 30.06 in 10.0 mi SE 8.1 mph - N/A   Scattered Clouds
9:56 AM 75.0 °F - 64.9 °F 71% 30.03 in 10.0 mi SE 10.4 mph 18.4 mph N/A   Clear
10:56 AM 80.1 °F 81.9 °F 64.9 °F 60% 30.02 in 10.0 mi SSE 8.1 mph - N/A   Clear
11:56 AM 87.1 °F 87.8 °F 63.0 °F 44% 29.99 in 10.0 mi South 16.1 mph 20.7 mph N/A   Clear
12:56 PM 90.0 °F 90.6 °F 63.0 °F 40% 29.89 in 10.0 mi South 24.2 mph 44.9 mph N/A   Clear
1:56 PM 91.9 °F 92.5 °F 62.1 °F 37% 29.86 in 10.0 mi South 23.0 mph 41.4 mph N/A   Clear
2:56 PM 95.0 °F 95.6 °F 62.1 °F 33% 29.88 in 10.0 mi South 18.4 mph 25.3 mph N/A   Clear
3:56 PM 97.0 °F 97.4 °F 61.0 °F 30% 29.86 in 10.0 mi SSW 13.8 mph 21.9 mph N/A   Clear
4:56 PM 98.1 °F 98.6 °F 61.0 °F 29% 29.84 in 10.0 mi South 12.7 mph - N/A   Clear
5:56 PM 98.1 °F 98.1 °F 60.1 °F 28% 29.82 in 10.0 mi SSW 15.0 mph 19.6 mph N/A   Clear
6:56 PM 96.1 °F 96.4 °F 61.0 °F 31% 29.81 in 10.0 mi South 11.5 mph - N/A   Clear
7:56 PM 91.9 °F 91.8 °F 61.0 °F 35% 29.81 in 10.0 mi South 10.4 mph 19.6 mph N/A   Clear
8:56 PM 89.1 °F 89.0 °F 61.0 °F 39% 29.83 in 10.0 mi South 10.4 mph - N/A   Clear
9:56 PM 86.0 °F 86.1 °F 61.0 °F 43% 29.84 in 10.0 mi SSE 11.5 mph - N/A   Clear
10:56 PM 82.0 °F 82.4 °F 60.1 °F 47% 29.85 in 10.0 mi South 9.2 mph - N/A   Clear
11:56 PM 80.1 °F 80.7 °F 59.0 °F 48% 29.85 in 10.0 mi Calm Calm - N/A   Clear